Flag for U.S.A. Weather past 2 weeks in Hollywood, Florida, U.S.A.

Now
85 °F

Passing clouds.


Feels Like: 92 °F
Forecast: 82 / 90 °F
Wind: 7 mph from East

Location: Fort Lauderdale / Hollywood International Airport

Current Time: Sep 1, 2014 at 5:18:21 AM

Latest Report: Sep 1, 2014 at 4:53 AM


Visibility: 10 mi

Pressure: 30.02 "Hg

Humidity: 70%

Dew point: 74 °F

Location of HollywoodLocation

Historic Weather in Hollywood — Graph

°F

Hollywood temperature yesterday

Maximum temperature yesterday: 91 °F (at 1:53 PM)
Minimum temperature yesterday: 82 °F (at 6:53 PM)
Average temperature yesterday: 87 °F

Past Weeks' High & Low Weather Summary

 TemperatureHumidityPressure
High94 °F (Aug 24, 2:53 PM)91% (Aug 25, 6:53 PM)30.11 "Hg (Aug 25, 6:53 PM)
Low78 °F (Aug 27, 5:53 AM)46% (Aug 19, 3:53 PM)29.71 "Hg (Aug 25, 4:53 PM)
Average86 °F68%29.98 "Hg
* Reported Aug 17 3:53 AM — Sep 1 3:53 AM, Hollywood, Weather by CustomWeather, © 2014

Note: Actual official high and low records may vary slightly from our data, if they occured in-between our weather recording intervals... More about our weather records

Advertising

Hollywood weather history for previous 24 hours

 ConditionsComfort  
Time TempWeatherWind HumidityBarometerVisibility
3:53 AM
Sep 1
85 °FPassing clouds.6 mph72%30.03 "Hg10 mi
2:53 AM85 °FPassing clouds.6 mph68%30.06 "Hg10 mi
1:53 AM85 °FPassing clouds.6 mph65%30.08 "Hg10 mi
12:53 AM85 °FPassing clouds.8 mph72%30.09 "Hg10 mi
11:53 PM
Aug 31
85 °FPassing clouds.9 mph72%30.09 "Hg10 mi
10:53 PM85 °FPassing clouds.9 mph75%30.09 "Hg10 mi
9:53 PM85 °FPassing clouds.9 mph75%30.08 "Hg10 mi
8:53 PM86 °FPassing clouds.12 mph65%30.07 "Hg10 mi
7:53 PM86 °FPassing clouds.8 mph67%30.06 "Hg10 mi
6:53 PM82 °FLight rain. Broken clouds.6 mph72%30.06 "Hg9 mi
5:53 PM89 °FPassing clouds.16 mph61%30.05 "Hg10 mi
4:53 PM90 °FPassing clouds.17 mph61%30.05 "Hg10 mi
3:53 PM90 °FScattered clouds.16 mph61%30.05 "Hg10 mi
2:53 PM90 °FScattered clouds.9 mph61%30.07 "Hg10 mi
1:53 PM91 °FScattered clouds.14 mph61%30.10 "Hg10 mi
12:53 PM90 °FScattered clouds.14 mph63%30.10 "Hg10 mi
11:53 AM90 °FPassing clouds.13 mph61%30.11 "Hg10 mi
10:53 AM89 °FScattered clouds.14 mph65%30.11 "Hg10 mi
9:53 AM87 °FScattered clouds.17 mph69%30.10 "Hg10 mi
8:53 AM86 °FScattered clouds.17 mph72%30.09 "Hg10 mi
7:53 AM84 °FPassing clouds.10 mph85%30.09 "Hg10 mi
6:53 AM84 °FPassing clouds.10 mph77%30.09 "Hg10 mi
5:53 AM83 °FPassing clouds.7 mph88%30.08 "Hg10 mi
Weather by CustomWeather, © 2014

See weather overviewHow to use our weather pages